Location: Palomar Mountain Lodge
(33.3110°N, 116.8495°W)
Time: 13:57:25
(UTC-07:00)

Thor Agena Rocket - Pass Details

Date: 13 December 2025
Orbit: 754 x 802 km, 99.1° (Epoch: 18 May)

Event Time Altitude Azimuth Distance (km) Brightness Sun altitude
Rises 17:14:15 0° 167° (SSE) 3,282 6.9 -7.1°
Reaches altitude 10° 17:16:34 10° 167° (SSE) 2,351 6.2 -7.6°
Maximum altitude 17:21:46 85° 255° (WSW) 795 3.7 -8.6°
Drops below altitude 10° 17:26:57 10° 345° (NNW) 2,336 5.9 -9.6°
Sets 17:29:15 0° 346° (NNW) 3,260 6.7 -10.0°
